Temp
18 20 21 22 23 21 21 22 23 27 28 27 28 28 28 29 30 30 32 33 33 33 34 34 34 34 35 38 39 38 37 38 34 27 27 28 27 27 28 28 29 30 32
17 19 21 21 22 20 22 22 23 25 28 27 28 27 27 28 28 29 30 31 31 32 32 33 33 33 34 35 37 35 36 35 35 27 26 25 26 26 26 26 27 28 28
15 18 19 19 20 20 21 25 27 27 27 27 27 26 27 27 27 28 28 28 29 29 30 32 32 33 33 34 35 34 33 33 32 31 24 25 25 25 24 25 26 26 29
14 16 16 17 19 20 22 23 26 27 27 27 27 26 26 26 26 27 27 27 28 28 28 29 30 31 32 32 32 32 31 30 29 28 25 23 24 24 25 24 22 25 26
13 14 15 16 18 18 21 22 24 25 27 27 27 28 28 27 27 26 26 26 26 26 27 29 30 31 32 32 31 30 30 29 28 26 24 22 22 21 22 23 23 23 24
10 12 14 17 18 20 22 22 24 25 26 27 26 27 28 29 31 30 27 25 25 26 25 26 26 25 33 34 34 33 32 29 28 27 25 24 23 24 23 23 22 21 22
14 18 20 20 21 21 23 23 23 24 25 25 26 26 27 28 30 29 27 25 24 25 26 27 27 28 27 28 31 31 32 34 33 30 27 26 23 24 24 22 22 23 22
18 19 21 21 21 22 22 21 22 24 24 25 25 27 27 30 30 29 29 27 26 26 26 27 27 28 28 27 27 26 26 27 27 28 26 25 25 26 26 25 24 20 20
17 17 19 20 20 21 20 20 22 22 23 23 24 25 26 29 32 31 28 26 25 25 26 26 27 28 30 29 26 24 24 24 32 32 32 31 30 29 25 22 20 22 21
19 20 19 19 19 18 20 20 22 22 23 24 24 23 24 25 32 32 28 26 24 23 24 25 30 29 30 28 25 24 21 20 22 21 20 21 22 26 26 21 21 21 19
20 20 20 20 18 19 19 19 19 18 19 17 19 20 20 22 25 32 31 26 24 23 23 22 23 30 30 30 26 23 22 21 22 17 18 18 18 19 21 21 20 21 19
18 17 17 15 18 19 12 15 14 15 15 15 15 18 19 19 24 28 31 30 28 23 22 21 21 28 30 30 25 28 28 19 18 17 17 18 18 18 19 19 18 19 19
12 12 12 12 16 16 14 15 15 13 15 16 17 18 19 20 19 26 27 29 29 23 22 22 28 28 29 26 27 30 18 19 18 17 18 18 17 18 14 15 14 13 13
11 12 12 11 13 12 16 16 15 15 15 16 16 17 17 17 19 20 20 20 22 24 23 20 24 27 27 26 19 23 20 19 18 19 19 19 16 14 14 15 15 14 13
12 13 13 14 13 14 15 16 16 16 17 15 14 15 15 17 19 26 26 21 19 20 14 15 17 17 18 18 18 17 18 16 15 16 16 16 14 15 15 14 14 12 14
15 14 15 14 13 13 13 14 21 26 27 28 29 25 19 23 28 30 31 31 32 32 17 16 16 16 16 18 17 18 17 15 18 18 17 18 17 17 16 15 14 11 12
16 17 15 14 13 12 10 11 13 17 25 29 30 31 32 32 32 33 33 34 34 33 27 22 18 21 19 19 19 19 19 18 18 17 17 17 17 17 15 15 13 12 11
15 15 14 14 13 10 10 11 10 10 13 13 19 26 28 29 30 31 32 31 23 24 25 24 23 23 22 20 21 18 19 19 17 18 17 17 17 16 15 13 14 12 11
15 16 14 14 9 11 8 7 8 7 8 9 7 14 16 24 26 28 29 19 16 17 17 19 22 23 23 23 22 22 20 20 20 18 16 16 16 16 14 14 14 11 11
13 15 12 10 6 6 7 8 8 8 8 8 10 11 7 5 7 7 9 10 10 12 14 14 16 18 18 20 21 21 21 21 21 21 20 20 18 17 15 15 14 13 12
14 12 13 9 9 8 8 8 8 7 9 9 10 10 19 8 10 10 8 6 8 10 12 13 14 14 15 16 16 16 16 17 18 19 19 20 20 19 19 17 16 16 13
15 14 12 11 11 9 8 8 6 5 5 6 10 11 19 11 12 12 12 14 14 12 12 13 14 15 16 16 16 15 15 15 16 16 16 17 17 18 18 18 17 15 14
15 14 13 12 12 11 10 9 8 5 5 8 9 10 11 12 12 12 13 14 15 16 16 16 16 16 17 18 18 18 17 17 18 18 17 17 17 17 17 16 16 15 13
15 15 14 13 13 12 12 12 12 12 11 11 12 12 12 13 13 13 14 14 14 14 14 14 13 12 12 12 13 13 13 13 15 15 15 15 15 15 16 15 14 14 13
13 13 12 11 11 11 10 10 10 10 10 10 10 10 10 10 9 9 10 10 9 8 8 6 7 7 7 6 6 6 8 9 10 11 13 13 13 13 13 14 14 13 12
10 10 9 9 8 8 7 7 7 7 6 6 5 5 5 5 4 4 4 2 2 2 3 4 4 2 3 4 5 6 7 12 12 11 13 14 13 12 13 12 12 12 11
MSLP
1019.31 1018.82 1018.36 1017.87 1017.36 1017.15 1016.80 1016.28 1015.68 1015.07 1014.62 1014.30 1013.94 1013.57 1013.09 1012.62 1012.01 1011.49 1010.83 1010.49 1010.15 1010.14 1010.23 1010.24 1009.79 1009.62 1009.58 1009.15 1009.33 1009.28 1010.14 1010.99 1012.18 1013.97 1014.35 1015.07 1015.92 1016.11 1016.92 1016.97 1017.24 1017.48 1017.56
1019.15 1018.64 1018.17 1017.73 1017.29 1017.06 1016.52 1015.93 1015.39 1014.90 1014.47 1014.24 1013.77 1013.24 1012.66 1012.19 1011.96 1011.45 1010.90 1010.49 1010.37 1010.25 1010.14 1010.03 1009.88 1009.74 1009.39 1009.69 1009.41 1009.84 1009.69 1010.68 1011.52 1013.60 1014.98 1015.54 1015.97 1015.98 1017.09 1017.61 1018.04 1018.30 1017.89
1019.11 1018.55 1018.14 1017.71 1017.26 1017.11 1016.55 1015.68 1015.32 1015.20 1014.73 1013.88 1013.40 1013.21 1012.94 1012.54 1012.02 1011.48 1011.37 1011.02 1010.71 1010.63 1010.51 1010.30 1009.76 1009.46 1010.00 1010.10 1009.89 1009.02 1009.47 1010.32 1011.32 1011.93 1014.01 1015.50 1016.49 1016.93 1017.63 1017.64 1018.50 1018.62 1018.37
1019.09 1018.62 1018.22 1017.79 1017.40 1017.08 1016.72 1015.99 1015.45 1015.03 1014.55 1013.94 1013.83 1013.30 1012.87 1012.53 1012.22 1011.72 1011.49 1011.18 1011.06 1010.95 1010.77 1010.61 1010.29 1009.71 1008.99 1008.94 1009.50 1009.07 1010.07 1010.96 1011.91 1012.63 1013.84 1015.15 1015.98 1016.77 1016.94 1017.31 1017.90 1017.90 1018.48
1019.13 1018.74 1018.37 1017.78 1017.30 1017.00 1016.79 1016.30 1015.86 1015.41 1014.90 1014.43 1013.95 1013.49 1012.91 1012.63 1012.36 1012.01 1011.97 1011.90 1011.82 1011.76 1011.58 1011.19 1010.79 1010.46 1010.02 1009.90 1010.38 1010.17 1011.01 1012.34 1012.04 1012.48 1013.86 1014.78 1015.61 1016.25 1016.45 1016.74 1017.39 1017.78 1018.28
1019.01 1018.69 1018.37 1017.85 1017.40 1017.08 1016.74 1016.53 1016.00 1015.80 1015.42 1014.91 1014.37 1013.90 1013.29 1012.79 1012.57 1012.29 1012.49 1012.48 1012.21 1012.17 1011.84 1011.66 1011.32 1010.46 1010.76 1010.76 1010.39 1011.39 1011.08 1011.63 1011.86 1012.80 1013.44 1013.97 1014.88 1015.52 1015.90 1016.54 1017.19 1017.58 1018.04
1018.79 1018.50 1018.22 1017.79 1017.57 1017.30 1017.01 1016.77 1016.34 1015.98 1015.75 1015.51 1015.15 1014.52 1013.91 1013.43 1013.29 1013.26 1013.22 1013.13 1013.02 1012.60 1011.93 1011.51 1012.00 1012.16 1011.72 1011.24 1012.26 1011.73 1012.49 1012.52 1012.33 1012.73 1012.69 1013.42 1014.62 1015.02 1015.33 1016.49 1017.07 1017.45 1017.64
1018.50 1018.31 1018.04 1017.73 1017.50 1017.30 1017.11 1016.96 1016.82 1016.50 1016.16 1015.82 1015.57 1015.29 1014.72 1014.09 1014.09 1014.03 1013.93 1013.84 1013.60 1013.24 1012.89 1012.79 1012.78 1012.84 1012.90 1012.90 1012.32 1012.53 1013.10 1012.60 1013.01 1013.04 1012.89 1014.17 1013.60 1014.60 1015.41 1016.00 1017.02 1017.71 1018.06
1018.09 1017.97 1017.80 1017.57 1017.41 1017.27 1017.19 1017.03 1016.88 1016.77 1016.51 1016.19 1015.94 1015.66 1015.47 1014.90 1014.42 1014.19 1014.16 1014.28 1014.23 1014.28 1014.21 1014.02 1013.90 1013.70 1013.34 1012.98 1012.82 1013.07 1013.52 1013.86 1014.29 1014.18 1013.87 1014.20 1013.54 1015.09 1016.09 1016.41 1017.19 1017.77 1018.13
1017.40 1017.38 1017.49 1017.49 1017.43 1017.27 1017.17 1016.99 1016.86 1016.72 1016.51 1016.39 1016.12 1015.89 1015.63 1015.45 1015.05 1014.77 1014.56 1014.42 1014.38 1014.48 1014.59 1014.57 1014.32 1014.23 1014.09 1014.06 1014.12 1014.32 1014.74 1015.05 1014.97 1014.50 1014.10 1015.10 1015.57 1015.75 1016.52 1017.07 1017.46 1017.83 1018.27
1017.04 1017.03 1017.05 1017.07 1017.13 1017.01 1016.97 1016.93 1016.88 1016.77 1016.53 1016.40 1016.27 1016.11 1015.85 1015.55 1015.12 1014.65 1014.64 1014.93 1015.17 1015.36 1015.46 1015.41 1015.16 1014.76 1014.72 1014.84 1015.05 1015.18 1015.17 1015.30 1015.24 1015.41 1015.83 1016.04 1016.52 1016.68 1017.17 1017.20 1017.57 1017.69 1018.18
1016.59 1016.75 1016.91 1017.00 1016.87 1016.85 1017.11 1016.96 1016.88 1016.71 1016.57 1016.49 1016.33 1016.03 1015.82 1015.59 1015.34 1015.08 1014.82 1014.76 1014.84 1014.96 1015.04 1015.11 1015.04 1014.94 1014.83 1014.81 1014.94 1014.96 1015.14 1015.74 1016.26 1016.37 1016.71 1017.24 1017.02 1017.21 1017.44 1017.53 1017.72 1017.70 1018.05
1016.29 1016.42 1016.60 1016.81 1016.71 1016.66 1016.70 1016.60 1016.67 1016.52 1016.33 1015.98 1015.86 1015.67 1015.35 1015.18 1015.02 1014.81 1014.66 1014.55 1014.51 1014.70 1014.75 1014.74 1014.63 1014.55 1014.51 1014.61 1014.68 1014.67 1014.94 1015.41 1015.74 1016.06 1016.05 1015.95 1016.30 1016.69 1017.00 1017.28 1017.37 1017.65 1017.83
1015.81 1015.88 1016.01 1016.23 1016.22 1016.35 1016.25 1016.30 1016.27 1016.11 1016.00 1015.78 1015.64 1015.38 1015.11 1014.76 1014.51 1014.25 1014.10 1014.05 1014.03 1014.07 1014.22 1014.35 1014.35 1014.31 1014.31 1014.40 1014.61 1014.64 1014.83 1015.05 1015.20 1015.27 1015.30 1015.45 1015.95 1016.37 1016.48 1016.69 1016.87 1017.23 1017.38
1015.00 1015.12 1015.32 1015.51 1015.66 1015.74 1015.73 1015.65 1015.63 1015.43 1015.44 1015.29 1015.19 1015.19 1015.09 1014.53 1014.17 1013.88 1013.69 1013.66 1013.69 1013.70 1013.86 1014.07 1014.01 1013.97 1013.88 1013.91 1014.05 1014.21 1014.37 1014.63 1014.82 1014.86 1015.02 1015.30 1015.46 1015.64 1015.47 1015.85 1016.11 1016.47 1016.34
1014.36 1014.51 1014.56 1014.77 1014.93 1015.11 1015.22 1015.09 1014.83 1014.55 1014.44 1014.30 1014.09 1013.98 1013.95 1013.80 1013.48 1013.27 1013.15 1013.10 1013.03 1013.06 1013.50 1013.73 1013.64 1013.68 1013.64 1013.49 1013.52 1013.48 1013.53 1013.68 1013.76 1013.97 1014.08 1014.14 1014.12 1014.16 1014.11 1014.51 1014.76 1014.88 1014.78
1013.29 1013.25 1013.56 1013.90 1014.22 1014.56 1014.80 1014.87 1014.46 1013.87 1013.68 1013.37 1013.18 1013.09 1013.01 1012.87 1012.75 1012.57 1012.44 1012.38 1012.29 1012.37 1012.58 1012.81 1012.98 1012.86 1012.84 1012.87 1012.91 1012.91 1012.74 1012.74 1012.98 1013.23 1013.33 1013.25 1013.32 1013.30 1013.42 1013.46 1013.52 1013.59 1013.44
1012.18 1012.30 1012.65 1013.01 1013.43 1013.82 1014.07 1014.21 1014.30 1014.22 1013.81 1013.42 1013.30 1013.12 1012.93 1012.74 1012.50 1012.23 1012.01 1011.82 1011.80 1011.85 1012.02 1012.09 1012.11 1012.09 1012.03 1012.05 1012.00 1012.08 1011.97 1012.02 1012.24 1012.29 1012.30 1012.25 1012.28 1012.29 1012.34 1012.33 1012.27 1012.25 1012.25
1011.40 1011.56 1011.80 1012.17 1012.63 1013.05 1013.43 1013.69 1013.78 1013.87 1013.82 1013.62 1013.65 1013.25 1012.97 1012.57 1012.29 1012.13 1011.99 1012.02 1011.97 1011.92 1011.91 1011.86 1011.72 1011.61 1011.48 1011.37 1011.23 1011.14 1011.13 1011.04 1011.03 1011.06 1010.98 1010.94 1010.97 1011.05 1010.94 1010.94 1010.93 1011.04 1011.14
1010.73 1010.87 1011.09 1011.46 1011.96 1012.50 1012.87 1013.17 1013.37 1013.48 1013.44 1013.35 1013.26 1013.11 1013.05 1013.08 1012.59 1012.45 1012.32 1012.21 1012.02 1011.82 1011.69 1011.62 1011.45 1011.27 1011.08 1010.85 1010.61 1010.43 1010.32 1010.19 1010.05 1009.90 1009.71 1009.56 1009.54 1009.57 1009.51 1009.53 1009.70 1009.75 1009.89
1010.53 1010.66 1010.89 1011.29 1011.64 1011.92 1012.28 1012.63 1012.76 1012.99 1012.95 1012.89 1012.72 1012.62 1012.13 1012.23 1012.14 1011.94 1011.86 1011.93 1012.02 1011.80 1011.52 1011.31 1011.10 1010.97 1010.81 1010.64 1010.45 1010.24 1010.02 1009.84 1009.72 1009.51 1009.25 1009.02 1008.81 1008.56 1008.44 1008.37 1008.36 1008.38 1008.58
1010.55 1010.50 1010.72 1010.99 1011.20 1011.60 1011.85 1012.08 1012.43 1012.75 1012.88 1012.83 1012.57 1012.30 1011.83 1011.87 1011.90 1011.81 1011.62 1011.45 1011.30 1011.23 1011.00 1010.84 1010.63 1010.37 1010.16 1009.99 1009.80 1009.63 1009.42 1009.18 1009.01 1008.83 1008.59 1008.36 1008.17 1008.00 1007.84 1007.63 1007.47 1007.51 1007.65
1010.73 1010.81 1010.99 1011.17 1011.32 1011.57 1011.88 1012.08 1012.18 1012.49 1012.64 1012.55 1012.39 1012.25 1012.03 1011.90 1011.73 1011.53 1011.31 1011.12 1010.90 1010.68 1010.46 1010.28 1010.02 1009.77 1009.52 1009.22 1008.98 1008.87 1008.70 1008.45 1008.20 1008.04 1007.77 1007.55 1007.39 1007.22 1007.05 1006.82 1006.70 1006.69 1006.84
1011.27 1011.38 1011.49 1011.63 1011.76 1011.96 1012.13 1012.31 1012.41 1012.43 1012.57 1012.57 1012.35 1012.26 1012.12 1011.88 1011.64 1011.41 1011.24 1011.08 1010.89 1010.69 1010.49 1010.22 1010.00 1009.73 1009.44 1009.19 1009.01 1008.81 1008.61 1008.40 1008.19 1007.94 1007.73 1007.37 1006.95 1006.64 1006.47 1006.27 1006.14 1006.13 1006.21
1012.44 1012.43 1012.49 1012.59 1012.62 1012.70 1012.85 1012.95 1013.03 1013.06 1013.03 1012.87 1012.74 1012.60 1012.38 1012.07 1011.88 1011.64 1011.40 1011.20 1010.95 1010.66 1010.32 1010.06 1009.83 1009.50 1009.18 1008.95 1008.81 1008.62 1008.32 1007.98 1007.76 1007.47 1007.21 1006.87 1006.50 1006.20 1005.92 1005.67 1005.50 1005.42 1005.58
1013.84 1013.75 1013.73 1013.68 1013.65 1013.70 1013.80 1013.89 1013.90 1013.80 1013.67 1013.54 1013.35 1013.05 1012.71 1012.36 1012.01 1011.68 1011.35 1011.06 1010.72 1010.37 1010.06 1009.77 1009.46 1009.21 1008.91 1008.56 1008.13 1007.78 1007.46 1007.12 1006.82 1006.50 1006.23 1005.93 1005.66 1005.45 1005.29 1005.12 1005.05 1005.06 1005.14
Wind_Speed
6 6 7 7 8 6 5 6 7 9 8 8 7 7 7 7 6 7 6 5 3 4 3 4 2 2 3 4 2 3 3 2 3 3 3 4 3 6 4 4 4 5 5
5 6 6 7 7 6 6 6 6 7 7 7 7 7 7 8 7 6 6 3 3 3 4 4 4 2 3 2 3 3 5 3 4 6 2 2 3 6 5 5 3 2 4
5 4 5 5 6 6 7 9 8 7 6 6 5 6 5 4 5 4 4 3 2 2 2 3 1 1 5 5 3 4 5 3 3 3 5 2 3 4 3 4 3 3 2
5 5 5 5 5 5 6 7 8 7 6 7 6 5 5 5 5 4 3 3 3 4 4 3 2 2 2 5 2 6 6 5 5 6 5 4 3 3 3 3 4 2 3
5 5 5 5 4 4 5 6 6 7 7 6 6 4 4 2 3 4 5 5 5 4 5 7 8 5 8 7 2 4 7 4 4 5 5 3 3 4 5 3 3 4 2
3 4 4 5 5 4 4 5 6 7 7 7 7 7 7 5 13 11 7 6 7 5 5 6 8 15 9 12 15 7 6 3 4 4 2 4 5 4 3 5 4 3 4
2 3 4 4 4 5 5 6 6 6 6 6 7 8 8 8 16 15 14 7 5 3 8 9 8 6 8 11 12 18 13 10 4 3 6 4 6 6 8 5 3 1 2
2 3 3 3 3 4 4 4 5 5 6 5 6 6 7 7 12 9 10 6 7 9 9 9 7 7 7 5 9 10 9 10 8 4 6 3 6 9 6 3 4 5 3
3 2 2 2 2 3 4 4 3 2 3 4 5 7 5 5 11 10 7 5 7 7 7 6 6 5 9 10 8 9 9 9 11 14 15 14 17 12 7 6 4 2 1
4 4 3 2 1 0 2 3 2 2 3 3 4 5 5 5 8 9 6 4 6 4 5 6 8 7 11 10 6 5 6 4 5 6 7 9 9 6 7 3 4 3 2
4 4 4 3 3 3 2 1 1 1 2 3 3 2 2 3 5 6 7 4 3 2 2 1 3 7 8 9 8 4 2 3 5 5 4 4 3 2 0 1 2 2 3
5 5 4 4 3 2 2 2 2 2 2 3 3 3 2 2 3 2 2 2 3 2 2 2 2 1 3 3 4 5 7 7 3 2 1 3 2 3 4 4 4 4 4
5 6 5 5 5 4 4 4 3 3 3 3 3 3 3 2 3 5 5 3 1 3 2 3 3 3 3 2 2 1 7 3 2 2 3 2 2 2 1 2 3 3 6
6 6 5 6 5 5 4 3 3 3 3 4 4 4 3 3 3 3 3 3 4 3 1 1 3 4 5 3 1 3 1 3 4 5 5 3 2 2 4 3 3 3 4
7 6 6 5 5 4 5 5 5 4 5 3 3 3 3 6 3 6 6 3 3 4 0 1 2 1 3 4 4 4 4 4 5 6 6 6 6 6 7 6 6 4 7
9 7 7 6 5 5 4 5 10 15 15 14 15 11 5 13 15 16 15 14 13 12 0 3 3 4 6 5 5 6 5 7 7 7 7 8 9 9 8 6 7 7 9
12 9 6 7 6 5 4 5 6 2 9 13 16 17 18 17 17 18 18 17 17 14 7 6 5 6 6 6 7 7 8 6 7 7 8 8 8 8 7 8 8 8 9
11 10 6 6 6 4 5 5 4 4 5 3 4 8 11 14 16 16 16 14 5 5 5 7 7 7 7 7 7 7 8 7 6 8 8 8 8 9 8 9 9 10 9
8 8 7 6 4 5 4 4 5 4 5 5 2 5 7 13 14 14 14 4 4 4 3 6 6 7 7 7 7 7 8 8 8 7 8 9 9 9 9 9 9 11 11
6 9 5 5 4 4 4 4 4 5 5 5 4 5 2 1 2 2 3 3 3 5 5 5 6 5 6 7 7 7 8 8 8 8 9 9 9 10 10 10 9 10 9
3 3 4 3 3 4 4 5 4 4 5 4 4 3 10 4 5 3 3 3 4 5 6 6 6 6 6 6 6 6 7 8 8 9 9 9 8 8 8 9 9 9 9
2 2 2 3 2 3 3 3 2 2 3 3 4 3 11 2 4 4 4 4 4 5 5 5 5 6 6 6 6 7 7 8 8 8 8 8 8 9 9 9 8 8 8
1 1 1 1 1 1 1 1 1 2 3 3 3 4 3 3 3 4 5 5 5 5 5 5 6 6 6 6 7 7 8 8 8 8 9 9 9 9 8 9 9 8 7
4 4 4 3 3 3 3 3 3 3 2 2 2 2 3 3 3 4 4 4 4 5 5 5 5 7 7 6 6 6 6 7 7 8 10 9 8 7 8 8 7 9 9
8 7 7 7 7 6 5 5 5 4 4 4 4 4 4 5 5 5 4 4 5 6 6 5 5 7 8 9 8 10 10 12 9 9 7 9 10 11 9 8 8 7 8
8 8 7 6 6 6 5 5 5 5 4 4 4 4 4 4 5 5 5 5 5 5 7 6 7 9 10 9 10 12 12 13 11 11 9 7 7 7 7 9 10 7 7
Wind_Direction
318 312 308 306 303 303 295 292 293 300 302 304 299 295 284 282 292 280 265 257 239 249 248 233 177 192 175 141 175 139 125 129 111 71 72 89 91 113 92 83 88 81 85
304 317 323 319 317 322 313 304 296 294 311 317 317 311 321 325 311 299 298 308 261 252 259 254 177 166 86 313 158 150 115 113 121 150 116 125 110 109 121 102 103 97 121
315 324 338 332 333 335 326 325 324 332 324 306 312 333 327 302 303 336 332 338 350 332 290 273 293 253 164 149 195 124 95 72 75 125 120 100 88 139 130 107 138 119 122
323 335 340 328 329 341 336 333 339 334 332 326 339 320 307 327 354 22 9 37 48 26 28 14 355 355 54 84 54 98 104 101 108 115 101 120 130 149 140 143 159 129 150
326 341 328 321 333 346 349 341 341 344 353 346 342 336 332 11 27 27 38 43 56 56 55 54 38 56 79 81 132 96 115 149 133 117 132 133 147 157 185 151 125 135 156
336 326 322 344 345 354 359 359 350 1 1 359 7 5 13 38 61 62 51 41 35 34 51 70 43 30 56 88 83 96 88 111 137 139 140 149 156 153 130 152 128 154 180
345 343 348 355 2 4 7 14 13 10 11 15 16 14 18 35 49 48 42 37 35 14 46 53 52 22 36 57 79 76 73 89 98 174 145 143 149 166 143 139 142 145 109
334 350 359 9 9 6 11 16 7 3 1 3 22 29 25 42 60 74 76 65 55 42 40 49 58 48 55 69 76 75 62 58 48 68 81 129 121 135 134 127 145 113 94
269 278 307 345 354 360 0 354 1 7 8 5 10 11 28 33 48 50 57 70 75 66 60 57 56 48 54 60 69 72 68 55 65 86 91 95 104 116 116 119 128 123 162
235 237 219 229 240 2 342 348 334 342 11 9 12 13 14 23 45 56 54 40 48 34 38 34 63 64 64 61 65 78 84 53 35 32 40 48 55 98 134 47 148 157 165
217 220 222 224 219 219 226 231 257 321 355 358 341 327 342 356 352 45 72 107 130 128 113 84 356 67 74 82 94 90 92 129 68 66 58 47 25 30 36 150 209 164 190
200 205 214 215 231 214 230 277 268 225 223 249 270 278 250 268 291 343 26 113 148 149 165 190 212 133 74 77 116 89 105 116 119 102 146 212 209 223 227 222 222 229 242
193 215 218 216 223 214 221 230 241 241 262 273 277 293 287 271 263 277 274 262 271 178 187 221 258 262 285 13 355 258 128 149 157 219 250 251 211 226 253 247 242 262 264
219 229 220 225 230 225 236 229 243 239 247 255 267 274 286 292 295 291 281 289 284 274 292 318 269 278 280 285 320 283 174 192 199 231 244 244 228 211 230 211 230 205 248
217 223 228 225 228 243 235 229 229 225 215 238 248 257 298 304 295 315 312 303 287 273 294 322 308 291 281 272 263 244 240 220 223 230 240 242 239 234 238 204 224 202 228
225 221 220 217 218 228 237 275 255 258 258 256 260 248 217 241 272 286 288 289 290 287 76 252 259 256 262 265 255 260 231 227 232 234 236 239 242 236 241 217 219 218 230
225 225 211 209 211 215 218 227 265 276 271 262 260 261 264 269 273 279 280 279 277 275 251 243 250 252 252 246 247 245 255 228 222 226 236 243 244 247 238 239 231 228 236
224 229 211 214 209 198 209 222 222 243 270 284 281 276 286 288 287 287 288 292 294 286 268 258 257 254 247 250 250 244 252 253 231 237 237 242 242 242 241 238 239 236 239
218 227 215 214 193 205 189 206 219 228 245 259 298 285 272 277 288 289 289 281 267 267 253 267 272 275 271 267 265 260 251 254 250 240 236 236 235 234 239 241 241 237 239
222 229 194 197 182 200 203 219 226 235 244 250 259 262 262 336 276 253 259 265 268 266 269 261 269 270 274 277 279 278 273 269 262 257 253 247 235 231 238 238 232 239 232
227 214 205 192 200 200 201 217 223 225 246 246 253 234 267 223 261 259 252 237 246 252 259 262 266 263 265 269 270 272 274 277 278 281 284 286 283 270 246 243 241 239 237
259 232 219 220 214 218 221 221 220 246 261 268 282 283 307 328 301 296 286 289 273 241 245 253 263 264 264 265 267 269 268 269 267 264 263 264 266 268 269 270 256 240 238
3 24 18 7 346 19 7 335 320 273 278 283 293 303 308 298 283 279 283 283 283 281 275 260 258 262 261 260 256 258 262 266 267 264 265 266 264 264 261 258 257 250 234
39 47 57 57 62 59 53 47 42 30 357 334 341 333 327 319 307 302 313 323 328 324 322 315 315 304 298 295 289 288 291 292 293 294 301 305 307 299 282 269 253 247 247
39 45 47 47 48 47 50 46 41 30 23 19 7 355 348 340 329 317 302 295 290 289 287 285 285 280 280 280 282 281 278 283 279 275 277 273 271 271 271 272 271 248 237
43 47 47 45 45 41 38 34 27 18 9 350 332 311 300 296 291 290 288 287 284 285 285 283 277 272 277 280 275 274 274 278 274 260 257 260 266 265 262 259 260 251 242